CW6144 Weather Reports


Display with metric or nautical units.
time (UTC)temp
F
wind
direction
speed
MPH
gust
MPH
rain 1hr
in
rain 24hr
in
rain mn
in
humidity
%
barometer
mb
20260510205012 65 340 3.0 9.0 0.00 0.00 0.00 79 1020.0
20260510204526 65 327 3.0 9.0 0.00 0.00 0.00 77 1020.0
20260510204010 65 19 4.0 8.0 0.00 0.00 0.00 76 1020.0
20260510203509 65 28 4.0 9.0 0.00 0.00 0.00 79 1019.8
20260510203027 65 325 5.0 9.0 0.00 0.00 0.00 78 1019.9
20260510202510 65 319 4.0 8.0 0.00 0.00 0.00 79 1019.8
20260510202006 65 343 3.0 8.0 0.00 0.00 0.00 79 1019.8
20260510201514 65 331 2.0 4.0 0.00 0.00 0.00 80 1019.7
20260510201005 66 9 3.0 5.0 0.00 0.00 0.00 80 1019.9
20260510200507 66 16 2.0 5.0 0.00 0.00 0.00 80 1019.9
20260510200022 66 25 2.0 4.0 0.00 0.00 0.00 79 1019.9
20260510195507 66 352 2.0 4.0 0.00 0.00 0.00 79 1019.8
20260510195009 66 325 2.0 4.0 0.00 0.00 0.00 79 1019.9
20260510194529 66 286 1.0 2.0 0.00 0.00 0.00 78 1020.0
20260510194009 66 322 0.0 3.0 0.00 0.00 0.00 77 1019.9
20260510193510 66 323 2.0 6.0 0.00 0.00 0.00 77 1019.8
20260510193028 67 248 1.0 6.0 0.00 0.00 0.00 77 1019.7
20260510192515 67 352 3.0 6.0 0.00 0.00 0.00 76 1019.8
20260510192007 67 5 3.0 10.0 0.00 0.00 0.00 76 1019.6
20260510191531 67 340 2.0 10.0 0.00 0.00 0.00 76 1019.6
20260510191004 67 16 3.0 9.0 0.00 0.00 0.00 77 1019.6
20260510190506 67 352 5.0 9.0 0.00 0.00 0.00 76 1019.6
20260510190037 67 15 5.0 12.0 0.00 0.00 0.00 76 1019.5
20260510185507 68 29 6.0 12.0 0.00 0.00 0.00 75 1019.4
20260510185007 68 26 6.0 10.0 0.00 0.00 0.00 75 1019.4
20260510184520 68 319 5.0 9.0 0.00 0.00 0.00 75 1019.3
20260510184008 68 5 3.0 9.0 0.00 0.00 0.00 74 1019.3
20260510183521 68 23 5.0 9.0 0.00 0.00 0.00 75 1019.3
20260510183025 68 12 5.0 9.0 0.00 0.00 0.00 74 1019.2
20260510182511 69 346 4.0 10.0 0.00 0.00 0.00 75 1019.2
20260510182009 69 348 5.0 10.0 0.00 0.00 0.00 75 1019.2
20260510181525 69 316 4.0 9.0 0.00 0.00 0.00 75 1019.3
20260510181011 69 347 5.0 9.0 0.00 0.00 0.00 74 1019.2
20260510180512 69 327 3.0 9.0 0.00 0.00 0.00 77 1019.1
20260510180025 69 32 4.0 8.0 0.00 0.00 0.00 77 1019.2
20260510175507 69 29 4.0 8.0 0.00 0.00 0.00 76 1019.1
20260510175006 69 27 2.0 10.0 0.00 0.00 0.00 76 1019.3
20260510174519 70 346 4.0 10.0 0.00 0.00 0.00 76 1019.4
20260510174008 70 336 1.0 5.0 0.00 0.00 0.00 76 1019.2
20260510173506 70 345 3.0 5.0 0.00 0.00 0.00 77 1019.1
20260510173027 69 52 2.0 8.0 0.00 0.00 0.00 76 1019.2
20260510172511 69 5 5.0 8.0 0.00 0.00 0.00 75 1019.2
20260510172009 69 5 3.0 8.0 0.00 0.00 0.00 75 1019.1
20260510171526 69 360 4.0 8.0 0.00 0.00 0.00 74 1019.0
20260510171010 69 10 4.0 7.0 0.00 0.00 0.00 75 1018.9
20260510170523 69 43 3.0 5.0 0.00 0.00 0.00 77 1018.8
20260510170033 69 38 3.0 5.0 0.00 0.00 0.00 76 1018.8
20260510165511 69 60 2.0 5.0 0.00 0.00 0.00 76 1018.6
20260510165009 69 25 3.0 6.0 0.00 0.00 0.00 77 1018.6
20260510164529 69 62 4.0 6.0 0.00 0.00 0.00 77 1018.5
20260510164008 69 30 3.0 8.0 0.00 0.00 0.00 75 1018.4
20260510163508 69 109 3.0 8.0 0.00 0.00 0.00 75 1018.3
20260510163031 69 9 4.0 8.0 0.00 0.00 0.00 75 1018.3
20260510162507 69 5 3.0 6.0 0.00 0.00 0.00 77 1018.3
20260510162009 68 334 4.0 6.0 0.00 0.00 0.00 76 1018.1
20260510161504 68 19 3.0 7.0 0.00 0.00 0.00 77 1018.1
20260510161004 68 34 4.0 9.0 0.00 0.00 0.00 76 1018.2
20260510160504 68 20 4.0 10.0 0.00 0.00 0.00 77 1018.2
20260510160011 68 25 5.0 10.0 0.00 0.00 0.00 78 1018.2
20260510155503 68 15 3.0 10.0 0.00 0.00 0.00 79 1018.1
20260510155006 68 80 5.0 9.0 0.00 0.00 0.00 80 1018.0
20260510154518 68 20 5.0 8.0 0.00 0.00 0.00 80 1018.0
20260510154009 68 43 4.0 7.0 0.00 0.00 0.00 80 1018.0
20260510153511 68 49 3.0 6.0 0.00 0.00 0.00 82 1018.0
20260510153024 68 59 2.0 5.0 0.00 0.00 0.00 82 1018.0
20260510152508 67 352 2.0 7.0 0.00 0.00 0.00 83 1018.0
20260510152008 67 13 3.0 7.0 0.00 0.00 0.00 83 1018.0
20260510151524 67 30 3.0 6.0 0.00 0.00 0.00 84 1018.1
20260510151002 67 5 2.0 6.0 0.00 0.00 0.00 83 1018.2
20260510150505 67 23 3.0 6.0 0.00 0.00 0.00 84 1018.3
20260510150008 67 348 3.0 5.0 0.00 0.00 0.00 83 1018.4
20260510145509 67 30 2.0 5.0 0.00 0.00 0.00 83 1018.4
20260510145003 67 352 3.0 5.0 0.00 0.00 0.00 84 1018.5
20260510144515 66 303 2.0 5.0 0.00 0.00 0.00 84 1018.5
20260510144008 66 17 2.0 5.0 0.00 0.00 0.00 84 1018.5
20260510143511 66 331 2.0 5.0 0.00 0.00 0.00 84 1018.5
20260510143030 66 337 3.0 5.0 0.00 0.00 0.00 84 1018.5
20260510142507 66 349 3.0 5.0 0.00 0.00 0.00 84 1018.5
20260510142007 66 15 2.0 5.0 0.00 0.00 0.00 84 1018.4
20260510141523 67 352 3.0 5.0 0.00 0.00 0.00 84 1018.4
20260510141008 66 5 2.0 5.0 0.00 0.00 0.00 86 1018.4
20260510140507 66 352 2.0 4.0 0.00 0.00 0.00 86 1018.4
20260510140006 66 14 2.0 4.0 0.00 0.00 0.00 87 1018.3
20260510135503 65 24 1.0 2.0 0.00 0.00 0.00 87 1018.2
20260510135003 65 35 1.0 2.0 0.00 0.00 0.00 87 1018.1
20260510134513 65 35 0.0 2.0 0.00 0.00 0.00 88 1018.0
20260510134011 65 5 1.0 2.0 0.00 0.00 0.00 88 1017.9
20260510133510 64 344 0.0 2.0 0.00 0.00 0.00 88 1017.8
20260510133018 64 10 1.0 2.0 0.00 0.00 0.00 89 1017.7
20260510132509 64 340 1.0 2.0 0.00 0.00 0.00 89 1017.6
20260510132016 64 254 0.0 2.0 0.00 0.00 0.00 89 1017.5
20260510131531 64 254 0.0 2.0 0.00 0.00 0.00 89 1017.4
20260510131011 64 254 0.0 2.0 0.00 0.00 0.00 89 1017.3
20260510130510 64 254 0.0 2.0 0.00 0.00 0.00 89 1017.2
20260510130023 64 254 0.0 2.0 0.00 0.00 0.00 90 1017.1
20260510125509 63 254 0.0 2.0 0.00 0.00 0.00 90 1017.1
20260510125013 63 343 0.0 2.0 0.00 0.00 0.00 90 1016.9
20260510124519 63 343 0.0 2.0 0.00 0.00 0.00 90 1016.8
20260510124011 63 343 0.0 2.0 0.00 0.00 0.00 90 1016.8
20260510123502 63 343 0.0 2.0 0.00 0.00 0.00 90 1016.7
20260510123013 63 343 0.0 2.0 0.00 0.00 0.00 90 1016.7
20260510122506 63 343 0.0 2.0 0.00 0.00 0.00 90 1016.7
20260510122006 63 343 0.0 2.0 0.00 0.00 0.00 90 1016.7
20260510121522 62 320 1.0 2.0 0.00 0.00 0.00 89 1016.6
20260510121007 62 5 0.0 2.0 0.00 0.00 0.00 89 1016.6
20260510120508 62 5 1.0 3.0 0.00 0.00 0.00 89 1016.6
20260510120034 63 5 2.0 4.0 0.00 0.00 0.00 89 1016.6
20260510115506 63 335 1.0 4.0 0.00 0.00 0.00 89 1016.5
20260510115013 62 335 2.0 3.0 0.00 0.00 0.00 88 1016.4
20260510114526 63 335 1.0 3.0 0.00 0.00 0.00 88 1016.4
20260510114010 63 350 2.0 2.0 0.00 0.00 0.00 88 1016.3
20260510113507 63 350 1.0 2.0 0.00 0.00 0.00 87 1016.1
20260510113014 63 261 0.0 3.0 0.00 0.00 0.00 88 1016.1
20260510112514 63 248 1.0 4.0 0.00 0.00 0.00 88 1016.1
20260510112006 63 229 0.0 4.0 0.00 0.00 0.00 87 1016.0
20260510111520 63 250 1.0 4.0 0.00 0.00 0.00 87 1015.8
20260510111007 63 228 0.0 4.0 0.00 0.00 0.00 87 1015.9
20260510110508 63 196 1.0 5.0 0.00 0.00 0.00 87 1015.8
20260510110029 63 209 1.0 5.0 0.00 0.00 0.00 87 1015.8
20260510105509 63 238 2.0 5.0 0.00 0.00 0.00 87 1015.9
20260510105008 63 233 2.0 5.0 0.00 0.00 0.00 87 1015.9
20260510104523 63 190 2.0 7.0 0.00 0.00 0.00 87 1015.8
20260510104010 62 216 3.0 7.0 0.00 0.00 0.00 87 1015.8
20260510103512 62 223 3.0 5.0 0.00 0.00 0.00 86 1015.7
20260510103029 62 230 2.0 4.0 0.00 0.00 0.00 86 1015.6
20260510102509 63 219 2.0 4.0 0.00 0.00 0.00 86 1015.4
20260510102010 63 205 2.0 5.0 0.00 0.00 0.00 86 1015.3
20260510101503 63 226 3.0 5.0 0.00 0.00 0.00 85 1015.3
20260510101002 63 238 3.0 5.0 0.00 0.00 0.00 85 1015.2
20260510100505 63 223 2.0 4.0 0.00 0.00 0.00 84 1015.1
20260510100003 63 221 2.0 4.0 0.00 0.00 0.00 84 1015.0
20260510095503 63 219 2.0 6.0 0.00 0.00 0.00 83 1014.7
20260510095002 63 217 2.0 7.0 0.00 0.00 0.00 83 1014.7
20260510094505 63 171 4.0 7.0 0.00 0.00 0.00 83 1015.0
20260510094004 63 175 2.0 6.0 0.00 0.00 0.00 82 1015.1
20260510093504 63 201 3.0 4.0 0.00 0.00 0.00 82 1015.2
20260510093004 63 189 2.0 6.0 0.00 0.00 0.00 82 1015.2
20260510092505 63 175 3.0 6.0 0.00 0.00 0.00 82 1015.0
20260510092003 63 209 2.0 4.0 0.00 0.00 0.00 81 1015.0
20260510091506 62 185 2.0 5.0 0.00 0.00 0.00 81 1015.2
20260510091003 62 212 2.0 5.0 0.00 0.00 0.00 82 1015.2
20260510090503 62 194 1.0 4.0 0.00 0.00 0.00 81 1015.3
20260510090007 62 200 1.0 5.0 0.00 0.00 0.00 80 1015.3
20260510085502 62 187 2.0 7.0 0.00 0.00 0.00 80 1015.1
20260510085003 62 171 2.0 7.0 0.00 0.00 0.00 79 1015.0
20260510084504 62 207 3.0 4.0 0.00 0.00 0.00 79 1015.1
20260510084003 62 194 1.0 4.0 0.00 0.00 0.00 78 1015.1
20260510083504 62 191 2.0 4.0 0.00 0.00 0.00 78 1015.1
20260510083017 62 199 2.0 4.0 0.00 0.00 0.00 78 1015.2
20260510082505 63 178 2.0 4.0 0.00 0.00 0.00 77 1015.4
20260510082004 63 225 1.0 4.0 0.00 0.00 0.00 77 1015.5
20260510081508 63 173 1.0 4.0 0.00 0.00 0.00 77 1015.4
20260510081004 63 168 2.0 5.0 0.00 0.00 0.00 77 1015.3
20260510080504 63 178 2.0 5.0 0.00 0.00 0.00 77 1015.3
20260510080023 63 212 3.0 5.0 0.00 0.00 0.00 77 1015.3
20260510075505 63 227 2.0 6.0 0.00 0.00 0.00 77 1015.2
20260510075004 63 200 2.0 6.0 0.00 0.00 0.00 76 1015.0
20260510074511 63 197 3.0 7.0 0.00 0.00 0.00 77 1014.9
20260510074002 63 188 3.0 7.0 0.00 0.00 0.00 77 1014.9
20260510073504 63 192 3.0 9.0 0.00 0.00 0.00 77 1014.9
20260510073008 62 183 3.0 9.0 0.00 0.00 0.00 77 1014.9
20260510072507 62 179 3.0 6.0 0.00 0.00 0.00 77 1015.0
20260510072004 62 180 2.0 6.0 0.00 0.00 0.00 77 1015.1
20260510071510 61 217 2.0 5.0 0.00 0.00 0.00 77 1015.2
20260510071004 61 194 3.0 5.0 0.00 0.00 0.00 77 1015.1
20260510070502 61 219 1.0 5.0 0.00 0.00 0.00 76 1015.0
20260510070012 61 199 2.0 3.0 0.00 0.00 0.00 75 1015.0
20260510065504 61 203 1.0 3.0 0.00 0.00 0.00 75 1015.1
20260510065004 61 220 1.0 3.0 0.00 0.00 0.00 74 1015.1
20260510064510 61 209 0.0 2.0 0.00 0.00 0.00 74 1015.1
20260510064003 61 189 1.0 2.0 0.00 0.00 0.00 74 1015.1
20260510063503 61 204 1.0 2.0 0.00 0.00 0.00 74 1015.2
20260510063008 61 221 1.0 2.0 0.00 0.00 0.00 73 1015.2
20260510062505 61 217 1.0 2.0 0.00 0.00 0.00 73 1015.2
20260510062009 61 223 0.0 2.0 0.00 0.00 0.00 72 1015.2
20260510061505 61 223 0.0 2.0 0.00 0.00 0.00 72 1015.2
20260510061004 61 209 0.0 2.0 0.00 0.00 0.00 72 1015.2
20260510060504 61 238 1.0 2.0 0.00 0.00 0.00 72 1015.3
20260510060012 61 237 1.0 2.0 0.00 0.00 0.00 71 1015.3
20260510055504 61 234 1.0 2.0 0.00 0.00 0.00 71 1015.3
20260510055004 61 234 0.0 3.0 0.00 0.00 0.00 71 1015.3
20260510054511 62 234 0.0 3.0 0.00 0.00 0.00 71 1015.5
20260510054004 62 226 1.0 2.0 0.00 0.00 0.00 71 1015.5
20260510053507 62 236 1.0 3.0 0.00 0.00 0.00 71 1015.5
20260510053013 62 183 1.0 3.0 0.00 0.00 0.00 71 1015.5
20260510052506 61 213 1.0 2.0 0.00 0.00 0.00 71 1015.5
20260510052004 61 213 1.0 5.0 0.00 0.00 0.00 71 1015.5
20260510051514 61 221 1.0 5.0 0.00 0.00 0.00 71 1015.5
20260510051004 61 217 2.0 4.0 0.00 0.00 0.00 73 1015.4
20260510050503 61 194 2.0 6.0 0.00 0.00 0.00 73 1015.2
20260510050011 60 217 3.0 6.0 0.00 0.00 0.00 74 1015.1
20260510045506 60 192 2.0 5.0 0.00 0.00 0.00 74 1015.1
20260510045006 59 178 1.0 7.0 0.00 0.00 0.00 74 1015.1
20260510044526 58 180 2.0 7.0 0.00 0.00 0.00 75 1015.0
20260510044006 58 214 2.0 3.0 0.00 0.00 0.00 75 1014.9
20260510043506 57 219 2.0 4.0 0.00 0.00 0.00 74 1015.0
20260510043016 57 236 1.0 4.0 0.00 0.00 0.00 74 1014.8
20260510042503 56 235 3.0 4.0 0.00 0.00 0.00 74 1014.6
20260510042003 56 229 3.0 4.0 0.00 0.00 0.00 74 1014.7
20260510041518 55 235 3.0 4.0 0.00 0.00 0.00 75 1014.7
20260510041004 55 240 2.0 4.0 0.00 0.00 0.00 75 1014.7
20260510040507 55 234 3.0 4.0 0.00 0.00 0.00 74 1014.7
20260510040014 55 229 3.0 4.0 0.00 0.00 0.00 74 1014.7
20260510035505 55 234 3.0 4.0 0.00 0.00 0.00 74 1014.6
20260510035004 55 222 3.0 4.0 0.00 0.00 0.00 74 1014.6
20260510034512 55 231 3.0 4.0 0.00 0.00 0.00 74 1014.6
20260510034006 55 234 3.0 3.0 0.00 0.00 0.00 74 1014.6
20260510033505 55 232 3.0 3.0 0.00 0.00 0.00 74 1014.5
20260510033014 56 229 3.0 3.0 0.00 0.00 0.00 73 1014.4
20260510032508 56 229 3.0 3.0 0.00 0.00 0.00 72 1014.3
20260510032007 56 231 2.0 3.0 0.00 0.00 0.00 71 1014.3
20260510031518 56 233 2.0 3.0 0.00 0.00 0.00 70 1014.2
20260510031008 57 236 2.0 3.0 0.00 0.00 0.00 69 1014.2
20260510030506 57 232 2.0 3.0 0.00 0.00 0.00 69 1014.1
20260510030016 57 232 2.0 3.0 0.00 0.00 0.00 68 1014.1
20260510025506 58 236 3.0 3.0 0.00 0.00 0.00 68 1014.1
20260510025006 58 240 2.0 4.0 0.00 0.00 0.00 66 1014.0
20260510024518 59 230 3.0 4.0 0.00 0.00 0.00 65 1014.0
20260510024005 59 221 1.0 2.0 0.00 0.00 0.00 64 1013.9
20260510023506 60 205 1.0 3.0 0.00 0.01 0.00 60 1013.8
20260510023016 60 227 2.0 3.0 0.00 0.02 0.00 63 1013.7
20260510022510 61 231 2.0 3.0 0.00 0.03 0.00 62 1013.6
20260510022007 61 225 1.0 2.0 0.00 0.04 0.00 57 1013.4
20260510021506 61 232 1.0 2.0 0.00 0.05 0.00 59 1013.3
20260510021002 61 230 1.0 3.0 0.00 0.07 0.00 60 1013.2
20260510020509 61 230 2.0 3.0 0.00 0.09 0.00 60 1013.1
20260510020004 62 225 2.0 2.0 0.00 0.09 0.00 58 1013.0
20260510015507 63 225 2.0 3.0 0.00 0.09 0.00 56 1012.9
20260510015003 63 234 2.0 3.0 0.00 0.09 0.00 56 1012.7
20260510014509 64 234 2.0 3.0 0.00 0.09 0.00 54 1012.8
20260510014005 65 234 2.0 3.0 0.00 0.10 0.00 51 1013.0
20260510013506 66 221 2.0 2.0 0.00 0.10 0.00 49 1013.0
20260510013014 67 292 1.0 2.0 0.00 0.10 0.00 48 1012.8
20260510012506 68 352 0.0 2.0 0.00 0.10 0.00 46 1012.8
20260510012007 69 352 0.0 2.0 0.00 0.10 0.00 46 1012.8
20260510011533 70 352 0.0 2.0 0.00 0.10 0.00 44 1012.8
20260510011006 70 324 0.0 2.0 0.00 0.10 0.00 42 1012.7
20260510010502 71 324 0.0 2.0 0.00 0.10 0.00 43 1012.6
20260510010004 71 323 0.0 2.0 0.00 0.10 0.00 42 1012.6
20260510005503 72 318 0.0 2.0 0.00 0.10 0.00 41 1012.5
20260510005004 72 318 0.0 2.0 0.00 0.10 0.00 41 1012.5
20260510004509 72 318 0.0 2.0 0.00 0.10 0.00 40 1012.4
20260510004005 72 360 0.0 2.0 0.00 0.10 0.00 40 1012.3
20260510003503 73 360 0.0 2.0 0.00 0.10 0.00 42 1012.2
20260510003011 73 360 1.0 2.0 0.00 0.10 0.00 40 1012.3
20260510002507 73 193 0.0 2.0 0.00 0.10 0.00 40 1012.4
20260510002006 73 67 0.0 2.0 0.00 0.10 0.00 39 1012.4
20260510001514 73 52 1.0 3.0 0.00 0.10 0.00 38 1012.4
20260510001006 74 71 1.0 3.0 0.00 0.10 0.00 38 1012.3
20260510000506 74 120 2.0 3.0 0.00 0.10 0.00 36 1012.3
20260510000041 74 64 1.0 3.0 0.00 0.10 0.00 37 1012.2
20260509235510 74 62 1.0 3.0 0.00 0.10 0.00 37 1012.0
20260509235003 75 78 1.0 6.0 0.00 0.10 0.00 37 1012.1
20260509234504 75 82 2.0 6.0 0.00 0.10 0.00 36 1012.1
20260509234005 75 53 1.0 4.0 0.00 0.10 0.00 37 1012.2
20260509233507 75 56 2.0 4.0 0.00 0.10 0.00 34 1012.2
20260509233007 75 76 2.0 5.0 0.00 0.10 0.00 34 1012.3
20260509232503 76 53 2.0 5.0 0.00 0.10 0.00 35 1012.4
20260509232004 76 49 2.0 4.0 0.00 0.10 0.00 37 1012.4
20260509231512 76 78 2.0 4.0 0.00 0.10 0.00 35 1012.3
20260509231005 76 112 2.0 5.0 0.00 0.10 0.00 34 1012.1
20260509230506 76 91 3.0 5.0 0.00 0.10 0.00 37 1012.1
20260509230019 76 66 2.0 6.0 0.00 0.10 0.00 36 1012.2
20260509225507 76 55 3.0 6.0 0.00 0.10 0.00 34 1012.1
20260509225006 77 23 4.0 6.0 0.00 0.10 0.00 35 1012.1
20260509224521 78 39 2.0 5.0 0.00 0.10 0.00 36 1012.0
20260509224007 78 119 3.0 5.0 0.00 0.10 0.00 32 1012.0
20260509223505 79 92 2.0 4.0 0.00 0.10 0.00 32 1012.1
20260509223008 79 5 0.0 3.0 0.00 0.10 0.00 33 1012.1
20260509222509 78 248 1.0 3.0 0.00 0.10 0.00 29 1012.1
20260509222005 78 220 1.0 3.0 0.00 0.10 0.00 32 1012.1
20260509221511 78 325 1.0 3.0 0.00 0.10 0.00 32 1012.2
20260509221004 78 279 0.0 3.0 0.00 0.10 0.00 32 1012.2
20260509220503 78 167 2.0 5.0 0.00 0.10 0.00 31 1012.1
20260509220025 78 360 3.0 5.0 0.00 0.10 0.00 34 1012.2
20260509215506 79 5 0.0 4.0 0.00 0.10 0.00 35 1012.3
20260509215015 78 194 0.0 4.0 0.00 0.10 0.00 30 1012.3
20260509214528 78 80 2.0 4.0 0.00 0.10 0.00 32 1012.3
20260509214006 77 53 0.0 5.0 0.00 0.10 0.00 36 1012.3
20260509213507 77 57 2.0 5.0 0.00 0.10 0.00 32 1012.3
20260509213029 77 83 2.0 5.0 0.00 0.10 0.00 35 1012.4
20260509212507 77 125 2.0 6.0 0.00 0.10 0.00 32 1012.4
20260509212007 77 85 2.0 6.0 0.00 0.10 0.00 36 1012.3
20260509211517 77 110 4.0 6.0 0.00 0.10 0.00 37 1012.4
20260509211004 77 205 2.0 5.0 0.00 0.10 0.00 32 1012.5
20260509210504 77 90 4.0 6.0 0.00 0.10 0.00 33 1012.5
20260509210017 77 123 3.0 10.0 0.00 0.10 0.00 33 1012.6
20260509205504 77 78 4.0 10.0 0.00 0.10 0.00 34 1012.7